User: anonymous   Login
Location: Nebraska Star Party
(42.6000°N, 100.8833°W)
Time: 23:01:53
(UTC-06:00)
Language:

Iridium 37 - Orbit

View from above orbital plane
View from above orbital plane
View from above satellite
View from above satellite

Ground track
Ground track

The orbit data is extracted from the following two-line orbital elements,

1 24968U 97056D   17022.92140842 -.00000032 +00000-0 -18375-4 0  9993
2 24968 086.3948 019.6028 0002020 085.7553 274.3873 14.34210281011509
Epoch (UTC): 22 January 2017 22:06:49
Eccentricity: 0.0002020
inclination: 86.3948°
perigee height: 776 km
apogee height: 779 km
right ascension of ascending node: 19.6028°
argument of perigee: 85.7553°
revolutions per day: 14.34210281
mean anomaly at epoch: 274.3873°
orbit number at epoch: 1150

The dashed part of the orbit path shows where the satellite is in the earth's shadow,  

DLR